Zurück zum Katalog

STARLINK-35837

AktivKommunikationVLEO
NORAD 66840·PAYLOAD·🇺🇸 United States

Gestartet Dec 2, 2025 von Vandenberg Space Force Base

Loading…

Nächste Überflüge (nächste 24 Stunden)

TLE

AktuellSource: CelesTrak SupGP

Epoche: Sep 14, 2026, 22:39 UTC

1 66840C 25280V   26257.94423611 -.00015234  00000+0 -12764-2 0  2578
2 66840  70.0010 217.3661 0003397 266.2022  40.8042 14.98345359    12

Verfolge STARLINK-35837 in Echtzeit mit AllMySat

Download on the App Store